Location: Hurstbourne Priors
(51.2000°N, 1.3667°W)
Time: 13:37:19
(UTC+00:00)

Cosmos 1340 Rocket - Pass Details

Date: 09 April 2020
Orbit: 529 x 559 km, 81.2° (Epoch: 24 May)

Event Time Altitude Azimuth Distance (km) Brightness Sun altitude
Rises 20:42:49 0° 212° (SSW) 2,727 6.3 -16.4°
Reaches altitude 10° 20:45:07 10° 221° (SW) 1,833 5.5 -16.7°
Maximum altitude 20:48:53 37° 289° (WNW) 870 4.4 -17.1°
Drops below altitude 10° 20:52:39 10° 358° (N) 1,831 6.0 -17.6°
Sets 20:54:57 0° 7° (N) 2,724 6.8 -17.9°
